[TLELIST] Archives

 

[TLELIST] Current TLEs

February 20th 2023 PST

HST 1 20580U 90037B 23050.51588971 .00004973 00000-0 27147-3 0 9995 2 20580 28.4708 330.3166 0002397 186.7735 342.7197 15.12029570603628 ISS (ZARYA) 1 25544U 98067A 23051.36495299 -.01256871 00000-0 -25100-1 0 9999 2 25544 51.6370 187.1475 0008028 6.6873 99.5559 15.48984843383678 CXO 1 25867U 99040B 23048.97315648 .00000890 00000-0 00000-0 0 9997 2 25867 39.1990 211.4474 9009277 250.7095 0.7055 0.37812765 12735 ...Continue Reading

[TLELIST] Current TLEs

February 20th 2023 PST

HST 1 20580U 90037B 23050.51588971 .00004973 00000-0 27147-3 0 9995 2 20580 28.4708 330.3166 0002397 186.7735 342.7197 15.12029570603628 ISS (ZARYA) 1 25544U 98067A 23051.36495299 -.01256871 00000-0 -25100-1 0 9999 2 25544 51.6370 187.1475 0008028 6.6873 99.5559 15.48984843383678 CXO 1 25867U 99040B 23048.97315648 .00000890 00000-0 00000-0 0 9997 2 25867 39.1990 211.4474 9009277 250.7095 0.7055 0.37812765 12735 ...Continue Reading

[TLELIST] Current TLEs

February 20th 2023 PST

HST 1 20580U 90037B 23050.51588971 .00004973 00000-0 27147-3 0 9995 2 20580 28.4708 330.3166 0002397 186.7735 342.7197 15.12029570603628 ISS (ZARYA) 1 25544U 98067A 23051.36495299 -.01256871 00000-0 -25100-1 0 9999 2 25544 51.6370 187.1475 0008028 6.6873 99.5559 15.48984843383678 CXO 1 25867U 99040B 23048.97315648 .00000890 00000-0 00000-0 0 9997 2 25867 39.1990 211.4474 9009277 250.7095 0.7055 0.37812765 12735 ...Continue Reading

[TLELIST] Current TLEs

February 19th 2023 PST

HST 1 20580U 90037B 23050.09271465 .00005125 00000-0 28015-3 0 9990 2 20580 28.4710 333.1270 0002431 182.1648 199.2828 15.12025456603827 ISS (ZARYA) 1 25544U 98067A 23050.38370686 .00017978 00000-0 31944-3 0 9997 2 25544 51.6393 192.0226 0009722 6.3932 20.8348 15.50210334383524 CXO 1 25867U 99040B 23048.97315648 .00000890 00000-0 00000-0 0 9997 2 25867 39.1990 211.4474 9009277 250.7095 0.7055 0.37812765 12735 ...Continue Reading

[TLELIST] Current TLEs

February 18th 2023 PST

HST 1 20580U 90037B 23048.53480439 .00006845 00000-0 37782-3 0 9990 2 20580 28.4714 343.4723 0002469 165.5943 358.8901 15.12008456603323 ISS (ZARYA) 1 25544U 98067A 23049.29866071 .00004454 00000-0 85451-4 0 9991 2 25544 51.6414 197.4046 0009577 2.7211 85.2114 15.50167101383355 CXO 1 25867U 99040B 23048.97315648 .00000890 00000-0 00000-0 0 9997 2 25867 39.1990 211.4474 9009277 250.7095 0.7055 0.37812765 12735 ...Continue Reading

[TLELIST] Current TLEs

February 17th 2023 PST

HST 1 20580U 90037B 23047.54471270 .00008146 00000-0 45172-3 0 9991 2 20580 28.4714 350.0470 0002508 155.2338 9.2689 15.11994740603176 ISS (ZARYA) 1 25544U 98067A 23048.35037287 .00023514 00000-0 41609-3 0 9990 2 25544 51.6397 202.0987 0009448 359.4932 192.9698 15.50140668383207 CXO 1 25867U 99040B 23048.97315648 .00000890 00000-0 00000-0 0 9997 2 25867 39.1990 211.4474 9009277 250.7095 0.7055 0.37812765 12735 ...Continue Reading

[TLELIST] Current TLEs

February 16th 2023 PST

HST 1 20580U 90037B 23047.27327970 .00008422 00000-0 46739-3 0 9995 2 20580 28.4715 351.8492 0002531 152.1878 331.9252 15.11991358603398 ISS (ZARYA) 1 25544U 98067A 23047.42183986 .00023210 00000-0 41151-3 0 9990 2 25544 51.6397 206.6993 0009381 355.8381 51.5918 15.50095694383065 CXO 1 25867U 99040B 23048.97315648 .00000890 00000-0 00000-0 0 9997 2 25867 39.1990 211.4474 9009277 250.7095 0.7055 0.37812765 12735 ...Continue Reading

[TLELIST] Current TLEs

February 16th 2023 PST

HST 1 20580U 90037B 23047.27327970 .00008422 00000-0 46739-3 0 9995 2 20580 28.4715 351.8492 0002531 152.1878 331.9252 15.11991358603398 ISS (ZARYA) 1 25544U 98067A 23047.42183986 .00023210 00000-0 41151-3 0 9990 2 25544 51.6397 206.6993 0009381 355.8381 51.5918 15.50095694383065 CXO 1 25867U 99040B 23048.97315648 .00000890 00000-0 00000-0 0 9997 2 25867 39.1990 211.4474 9009277 250.7095 0.7055 0.37812765 12735 ...Continue Reading

[TLELIST] Current TLEs

February 15th 2023 PST

HST 1 20580U 90037B 23046.19943755 .00007007 00000-0 38734-3 0 9994 2 20580 28.4715 358.9797 0002577 141.1301 246.3028 15.11972986603232 ISS (ZARYA) 1 25544U 98067A 23046.33235144 .00023566 00000-0 41842-3 0 9994 2 25544 51.6404 212.0968 0009312 352.6402 91.1572 15.50045791382899 CXO 1 25867U 99040B 23046.32761237 .00000866 00000-0 00000-0 0 9996 2 25867 39.2503 211.7596 9007630 250.4756 0.4578 0.37813061 12722 ...Continue Reading

[TLELIST] Current TLEs

February 14th 2023 PST

HST 1 20580U 90037B 23044.64145903 .00007487 00000-0 41484-3 0 9999 2 20580 28.4712 9.3254 0002575 124.6242 45.7853 15.11951195603003 ISS (ZARYA) 1 25544U 98067A 23045.36571807 .00025035 00000-0 44457-3 0 9993 2 25544 51.6423 216.8870 0009214 348.9875 97.3640 15.50004743382747 CXO 1 25867U 99040B 23046.32761237 .00000866 00000-0 00000+0 0 9995 2 25867 39.2503 211.7596 9007630 250.4756 0.4578 0.37813061 23870 ...Continue Reading
  • This mailing list is a public mailing list - anyone may join or leave, at any time.
  • This mailing list is announce-only.

International Space Station (ISS) / Hubble Space Telescope (HST) / Chandra X-Ray Observatory Orbital Data via EMAIL

Privacy Policy:

Private list